Logan, UT

7:54 PM MST on December 13, 2019 (GMT -0700)
Logan-Cache

Weather History for KLGU - October, 2019

Change the Weather History Date:

Thursday, October 24, 2019

  Actual Average Record
Temperature  
Mean Temperature 36 °F -  
Max Temperature 51 °F 57 °F 75 °F (1960)
Min Temperature 21 °F 31 °F 20 °F (1975)
Degree Days  
Heating Degree Days 30    
Moisture  
Dew Point 21 °F    
Average Humidity 61    
Maximum Humidity 89    
Minimum Humidity 26    
Precipitation  
Precipitation 0.00 in - - ()
Sea Level Pressure  
Sea Level Pressure 30.47 in    
Wind  
Wind Speed 2 mph ()    
Max Wind Speed 5 mph    
Max Gust Speed -    
Visibility 9.9 miles    
Events      
Averages and records for this station are not official NWS values.
T = Trace of Precipitation, MM = Missing Value Source: Averaged Metar Reports

Daily Weather History Graph

Daily Weather History Graph

Search for Another Location

Airport or City:

Astronomy

Oct. 24, 2019 Rise Set
Actual Time 7:49 AM MDT 6:32 PM MDT
Civil Twilight 7:21 AM MDT 7:01 PM MDT
Nautical Twilight 6:48 AM MDT 7:33 PM MDT
Astronomical Twilight 6:16 AM MDT 8:05 PM MDT
Moon 3:18 AM MDT (10/24) 5:07 PM MDT (10/24)
Length of Visible Light 11h 39m
Length of Day
10h 42m
Waning Crescent, 16% of the Moon is Illuminated
Oct 24
Waning Crescent
Oct 27
New
Nov 4
First Quarter
Nov 12
Full
Nov 19
Last Quarter

Hourly Weather History & Observations

Time (MDT) Temp. Windchill Dew Point Humidity Pressure Visibility Wind Dir Wind Speed Gust Speed Precip Events Conditions
12:51 AM 28.9 °F 25.2 °F 21.9 °F 75% 30.39 in 10.0 mi Variable 3.5 mph - N/A   Clear
1:51 AM 28.9 °F 25.2 °F 21.0 °F 72% 30.39 in 10.0 mi East 3.5 mph - N/A   Clear
2:51 AM 27.0 °F - 21.0 °F 78% 30.41 in 10.0 mi Calm Calm - N/A   Clear
3:51 AM 23.0 °F 18.4 °F 18.0 °F 81% 30.41 in 10.0 mi North 3.5 mph - N/A   Clear
4:51 AM 25.0 °F 19.3 °F 19.9 °F 81% 30.41 in 10.0 mi East 4.6 mph - N/A   Clear
5:51 AM 26.1 °F - 19.9 °F 78% 30.44 in 10.0 mi Calm Calm - N/A   Clear
6:51 AM 21.9 °F - 19.0 °F 89% 30.49 in 10.0 mi Calm Calm - N/A   Clear
7:51 AM 24.1 °F - 19.0 °F 81% 30.50 in 9.0 mi Calm Calm - N/A   Clear
8:51 AM 27.0 °F - 23.0 °F 85% 30.51 in 10.0 mi Calm Calm - N/A   Clear
9:51 AM 32.0 °F - 25.0 °F 75% 30.52 in 10.0 mi Calm Calm - N/A   Clear
10:51 AM 37.0 °F 33.3 °F 25.0 °F 62% 30.51 in 10.0 mi NNW 4.6 mph - N/A   Clear
11:51 AM 41.0 °F 38.0 °F 23.0 °F 49% 30.52 in 10.0 mi NNW 4.6 mph - N/A   Clear
12:51 PM 44.1 °F 42.5 °F 21.9 °F 42% 30.51 in 10.0 mi Variable 3.5 mph - N/A   Clear
2:51 PM 48.0 °F - 16.0 °F 28% 30.44 in 10.0 mi Calm Calm - N/A   Clear
3:51 PM 50.0 °F - 16.0 °F 26% 30.45 in 10.0 mi Calm Calm - N/A   Clear
4:51 PM 50.0 °F - 18.0 °F 28% 30.44 in 10.0 mi Variable 3.5 mph - N/A   Clear
5:51 PM 50.0 °F - 18.0 °F 28% 30.44 in 10.0 mi Calm Calm - N/A   Clear
6:51 PM 46.0 °F 43.9 °F 19.0 °F 34% 30.47 in 10.0 mi WSW 4.6 mph - N/A   Clear
7:51 PM 41.0 °F - 24.1 °F 51% 30.50 in 10.0 mi Calm Calm - N/A   Clear
8:51 PM 37.9 °F 35.5 °F 23.0 °F 55% 30.51 in 10.0 mi East 3.5 mph - N/A   Clear
9:51 PM 35.1 °F - 24.1 °F 64% 30.52 in 9.0 mi Calm Calm - N/A   Clear
10:51 PM 33.1 °F - 25.0 °F 72% 30.53 in 10.0 mi Calm Calm - N/A   Clear
11:51 PM 32.0 °F - 24.1 °F 73% 30.52 in 10.0 mi Calm Calm - N/A   Clear